Weather History for Baker, OR

Change the Weather History Date:

Tuesday, February 26, 2013

  Actual Average Record
Temperature  
Mean Temperature 29 °F 32 °F  
Max Temperature 40 °F 44 °F 62 °F (1986)
Min Temperature 17 °F 21 °F -3 °F (1993)
Degree Days  
Heating Degree Days 36 32  
Month to date heating degree days 873 931  
Since 1 July heating degree days 5326 5454  
Cooling Degree Days 0 0  
Month to date cooling degree days 0 0  
Year to date cooling degree days 0 0  
Moisture  
Dew Point 18 °F    
Average Humidity 62    
Maximum Humidity 84    
Minimum Humidity 40    
Precipitation  
Precipitation 0.00 in 0.02 in 0.17 in (2000)
Month to date precipitation 0.29 0.54  
Year to date precipitation 1.13 1.34  
Sea Level Pressure  
Sea Level Pressure 30.34 in    
Wind  
Wind Speed 6 mph (SE)    
Max Wind Speed 15 mph    
Max Gust Speed 20 mph    
Visibility 10 miles    
Events      
T = Trace of Precipitation, MM = Missing Value Source: NWS Daily Summary

Daily Weather History Graph

Daily Weather History Graph

Search for Another Location

Airport:

Trip Planner

Search our weather history database for the weather conditions in past years. The results will help you decide how hot, cold, wet, or windy it might be!

Date:

Astronomy

Feb. 26, 2013 Rise Set
Actual Time 6:33 AM PST 5:35 PM PST
Civil Twilight 6:04 AM PST 6:04 PM PST
Nautical Twilight 5:30 AM PST 6:38 PM PST
Astronomical Twilight 4:56 AM PST 7:12 PM PST
Moon 7:02 PM PST (2/26) 6:34 AM PST (2/26)
Length of Visible Light 12h 00m
Length of Day
11h 01m
Full, 99% of the Moon is Illuminated
Feb 26
Full
Mar 4
Last Quarter
Mar 11
New
Mar 19
First Quarter
Mar 27
Full

Hourly Weather History & Observations

Time (PST) Temp. Windchill Dew Point Humidity Pressure Visibility Wind Dir Wind Speed Gust Speed Precip Events Conditions
12:53 AM 25.0 °F 19.3 °F 17.1 °F 72% 30.25 in 10.0 mi West 4.6 mph - N/A   Clear
1:53 AM 28.0 °F 18.6 °F 18.0 °F 66% 30.26 in 10.0 mi NW 10.4 mph - N/A   Mostly Cloudy
2:53 AM 24.1 °F 17.0 °F 16.0 °F 71% 30.28 in 10.0 mi West 5.8 mph - N/A   Clear
3:53 AM 21.9 °F 17.2 °F 15.1 °F 75% 30.32 in 10.0 mi SW 3.5 mph - N/A   Clear
4:53 AM 18.0 °F 12.7 °F 14.0 °F 84% 30.34 in 10.0 mi SSW 3.5 mph - N/A   Clear
5:53 AM 19.0 °F 13.9 °F 15.1 °F 85% 30.36 in 10.0 mi SE 3.5 mph - N/A   Scattered Clouds
6:53 AM 17.1 °F - 14.0 °F 88% 30.38 in 10.0 mi Calm Calm - N/A   Scattered Clouds
7:53 AM 24.1 °F - 18.0 °F 77% 30.39 in 10.0 mi Calm Calm - N/A   Mostly Cloudy
8:53 AM 30.0 °F 23.2 °F 19.9 °F 66% 30.38 in 10.0 mi South 6.9 mph - N/A   Partly Cloudy
9:53 AM 33.1 °F 25.5 °F 18.0 °F 54% 30.38 in 10.0 mi SSE 9.2 mph - N/A   Clear
10:53 AM 34.0 °F 28.8 °F 16.0 °F 48% 30.37 in 10.0 mi SE 5.8 mph - N/A   Clear
11:53 AM 36.0 °F 31.1 °F 17.1 °F 46% 30.36 in 10.0 mi Variable 5.8 mph - N/A   Clear
12:53 PM 37.9 °F 35.5 °F 16.0 °F 41% 30.35 in 10.0 mi ESE 3.5 mph - N/A   Clear
1:53 PM 37.9 °F 31.5 °F 19.0 °F 47% 30.33 in 10.0 mi East 9.2 mph - N/A   Clear
2:53 PM 39.0 °F 31.8 °F 19.9 °F 46% 30.32 in 10.0 mi East 11.5 mph - N/A   Clear
3:53 PM 37.9 °F 29.2 °F 19.9 °F 48% 30.32 in 10.0 mi East 15.0 mph - N/A   Mostly Cloudy
4:53 PM 36.0 °F 29.0 °F 19.9 °F 52% 30.33 in 10.0 mi East 9.2 mph - N/A   Partly Cloudy
5:53 PM 32.0 °F 24.8 °F 21.0 °F 64% 30.34 in 10.0 mi East 8.1 mph - N/A   Clear
6:53 PM 30.9 °F 22.8 °F 21.0 °F 67% 30.36 in 10.0 mi East 9.2 mph - N/A   Clear
7:53 PM 30.9 °F 22.8 °F 21.9 °F 69% 30.35 in 10.0 mi East 9.2 mph - N/A   Clear
8:53 PM 30.0 °F 24.1 °F 21.9 °F 72% 30.33 in 10.0 mi SE 5.8 mph - N/A   Partly Cloudy
9:53 PM 30.0 °F 22.4 °F 21.0 °F 69% 30.33 in 10.0 mi East 8.1 mph - N/A   Partly Cloudy
10:53 PM 27.0 °F - 19.9 °F 75% 30.35 in 10.0 mi Calm Calm - N/A   Clear
11:53 PM 28.0 °F - 21.0 °F 75% 30.35 in 10.0 mi Calm Calm - N/A   Partly Cloudy